STARLINK-34044, 63846

Orbit data source: Space-Track

STARLINK-34044, 63846 is a payload satellite owned by SpaceX/Seattle (US) in LEO that was launched on Wed, 07 May 2025 UTC via an FALCON 9 launch vehicle from the Air Force Eastern Test Range (AFETR). Payload-class satellites include a variety of spacecraft equipped with specific instruments for various scientific and technological missions. These include communications satellites like Starlink; space stations such as the ISS; scientific satellites like the Hubble; Earth observation satellites from companies like Planet Labs, Umbra, and HawkEye 360; GPS; miniature CubeSats for education and research; and military/defense satellites.

Loading next visibility...
Identifier
63846, 2025-093L
Orbit
LEO
Country
Flag of USUS
Related business
Manufacturer
SpaceX/Seattle
Mission
Operational Commercial Communications
Bus & Motor
STARLINK V2MO, Unknown motor
Mass
575 kg wet, ~530 kg dry
Launch date (UTC)
2025-05-07 (7 months ago)
Launch vehicle
FALCON 9
Launch site
Air Force Eastern Test Range (AFETR)
Object type
Payload
Rocket body
Debris
Shape & HBR
Box + 2 Pan, 17.7 m
Radar Cross Section
36.964 m², Large (>1 m²)

Expand to show TLE details & history
Last TLE update: 16 hours ago

TLE from 16 hours ago
0 STARLINK-34044
1 63846U 25093L   25348.93976104  .00011925  00000-0  44211-3 0  9990
2 63846  42.9984 196.2770 0001616 263.3834  96.6833 15.27584870 34795
Epoch: 2025-12-14T22:33Z
TLE epoch observation values (Epoch: 2025-12-14T22:33:15.353Z)
Latitude
-0.00008°
Longitude
134.11746°
Altitude
482.939 km
Speed
7.626 km/s
True Right ascension
13h 05m 06s
True Declination
0° 00' 00"
Sunlit
Object was in daylight at epoch
Visualization orbit readout
Latitude
Unknown
Longitude
Unknown
Altitude
Unknown
Speed
Unknown
Apparent Right ascension
Unknown
Apparent Declination
Unknown
Sunlit
N/A
Visualization observer readout
Local Sidereal Time
13:22:45
Azimuth
Unknown
Elevation
Unknown
Doppler factor
Unknown
Orbital elements
Apogee altitude
486.089 km
Perigee altitude
483.871 km
Semi-major axis
6,863.117 km
Eccentricity
0.00016
Inclination
42.9984°
RAAN
196.277°
Arg. of periapsis
263.3834°
True anomaly
96.70169°
Mean anomaly
96.6833°
Eccentric anomaly
96.6925°
Mean motion
3.81734 °/min
Orbital period
94.31 mins
BSTAR
0.00044211
Loading maneuver chart data...
Computing Atmospheric mass density...
Loading historical data...
Loading historical data...
Loading historical data...
Loading historical data...
Loading historical data...
Loading historical data...
Loading historical data...

Documentation

Showing up to 5 results
|